Location: ??????
(38.1303°N, 24.0039°E)
Time: 08:16:46
(UTC+00:00)

COSMOS 2406 - Pass Details

Date: 20 June 2021
Orbit: 843 x 863 km, 71.0° (Epoch: 23 July)

Event Time Altitude Azimuth Distance (km) Brightness Sun altitude
Exits shadow 01:43:52 11° 191° (S) 2,367 5.0 -12.9°
Maximum altitude 01:49:13 69° 109° (ESE) 903 3.5 -12.1°
Drops below altitude 10° 01:54:50 10° 27° (NNE) 2,470 6.9 -11.3°
Sets 01:57:18 0° 26° (NNE) 3,410 7.8 -10.9°
